Location: Newark
(23.3970°S, 47.6010°W)
Time: 02:45:12
(UTC+00:00)

Vanguard 3 - All Passes

Search period start: 23 February 2020 00:00
Search period end: 04 March 2020 00:00
Orbit: 508 x 3263 km, 33.3° (Epoch: 22 February)

Date Brightness Start Highest point End Pass type
(mag) Time Alt. Az. Time Alt. Az. Time Alt. Az.
23 Feb - 01:25:46 10° W 01:43:24 57° SSW 01:54:02 10° ESE visible
23 Feb - 03:46:18 10° WSW 03:59:13 54° S 04:06:22 10° E visible
23 Feb - 06:03:46 10° WSW 06:12:32 71° NNW 06:17:32 10° NE visible
23 Feb - 19:37:34 10° NNW 19:52:48 33° NE 20:08:55 10° E daylight
23 Feb - 21:49:24 10° NW 22:09:13 74° NNE 22:26:06 10° ESE visible
24 Feb - 00:06:52 10° W 00:26:35 68° SSW 00:39:44 10° ESE visible
24 Feb - 02:27:43 10° WSW 02:43:26 53° S 02:52:28 10° ESE visible
24 Feb - 04:46:49 10° WSW 04:58:17 74° SSE 05:04:28 10° ENE visible
24 Feb - 07:04:00 10° W 07:09:51 26° NW 07:13:52 10° NNE visible
24 Feb - 18:25:54 10° N 18:36:33 19° NE 18:48:27 10° E daylight
24 Feb - 20:34:05 10° NW 20:52:06 55° NE 21:10:01 10° ESE daylight
24 Feb - 22:48:55 10° WNW 23:09:19 83° SSW 23:25:01 10° ESE visible
25 Feb - 01:08:36 10° W 01:26:54 57° S 01:38:17 10° ESE visible
25 Feb - 03:29:03 10° WSW 03:43:09 59° S 03:50:54 10° E visible
25 Feb - 05:46:55 10° WSW 05:56:27 60° NW 06:01:51 10° NE night (unlit)
25 Feb - 19:20:12 10° NNW 19:35:25 38° NE 19:52:30 10° ESE daylight
25 Feb - 21:32:16 10° NW 21:51:50 80° NNE 22:09:38 10° ESE visible
25 Feb - 23:49:46 10° W 00:09:44 66° SSW 00:23:43 10° ESE visible
26 Feb - 02:10:27 10° WSW 02:27:09 56° S 02:36:55 10° E visible
26 Feb - 04:29:38 10° WSW 04:42:13 85° SSE 04:48:56 10° ENE visible
26 Feb - 06:47:42 10° W 06:53:38 22° NW 06:57:45 10° N night (unlit)
26 Feb - 18:08:10 10° N 18:19:23 22° NE 18:32:34 10° E daylight
26 Feb - 20:16:59 10° NW 20:34:36 61° NE 20:53:23 10° ESE daylight
26 Feb - 22:31:54 10° WNW 22:52:07 78° SSW 23:08:42 10° ESE visible
27 Feb - 00:51:28 10° W 01:10:20 58° S 01:22:29 10° ESE visible
27 Feb - 03:11:43 10° WSW 03:26:59 66° SSE 03:35:23 10° E visible
27 Feb - 05:29:58 10° WSW 05:40:15 51° NW 05:46:04 10° NE night (unlit)
27 Feb - 19:03:05 10° NNW 19:18:00 42° NE 19:35:51 10° ESE daylight
27 Feb - 21:15:20 10° WNW 21:34:26 86° NNE 21:53:04 10° ESE daylight
27 Feb - 23:32:47 10° W 23:52:50 64° SSW 00:07:39 10° ESE visible
28 Feb - 01:53:11 10° WSW 02:10:48 59° S 02:21:17 10° E visible
28 Feb - 04:12:21 10° WSW 04:26:00 85° NNW 04:33:17 10° ENE visible
28 Feb - 06:31:24 10° W 06:37:18 20° NW 06:41:31 10° N night (unlit)
28 Feb - 17:50:49 10° N 18:02:09 26° NE 18:16:16 10° E daylight
28 Feb - 20:00:06 10° NW 20:17:07 67° NE 20:36:36 10° ESE daylight
28 Feb - 22:15:03 10° WNW 22:34:56 74° SSW 22:52:18 10° ESE visible
29 Feb - 00:34:21 10° W 00:53:43 59° S 01:06:39 10° ESE visible
29 Feb - 02:54:19 10° WSW 03:10:42 73° SSE 03:19:46 10° ENE visible
29 Feb - 05:13:00 10° WSW 05:23:55 45° NW 05:30:12 10° NNE night (unlit)
29 Feb - 16:42:59 10° NE 16:46:56 11° NE 16:51:16 10° ENE daylight
29 Feb - 18:46:10 10° NNW 19:00:34 47° NE 19:19:01 10° ESE daylight
29 Feb - 20:58:35 10° WNW 21:17:04 89° SSW 21:36:22 10° ESE daylight
29 Feb - 23:15:53 10° W 23:35:56 63° S 23:51:31 10° ESE visible
01 Mar - 01:35:52 10° WSW 01:54:21 63° S 02:05:35 10° E visible
01 Mar - 03:55:01 10° WSW 04:09:39 76° NNW 04:17:33 10° NE visible
01 Mar - 06:15:09 10° W 06:20:53 17° NW 06:25:07 10° NNW night (unlit)
01 Mar - 17:33:44 10° N 17:44:55 29° NE 17:59:42 10° E daylight
01 Mar - 19:43:24 10° NW 19:59:41 73° NNE 20:19:40 10° ESE daylight
01 Mar - 21:58:21 10° W 22:17:47 71° SSW 22:35:51 10° ESE visible
02 Mar - 00:17:17 10° WSW 00:37:02 60° S 00:50:47 10° E visible
02 Mar - 02:36:53 10° WSW 02:54:16 80° SSE 03:04:05 10° ENE visible
02 Mar - 04:55:59 10° WSW 05:07:26 40° NW 05:14:13 10° NNE visible
02 Mar - 16:24:24 10° NNE 16:30:00 13° NE 16:36:36 10° ENE daylight
02 Mar - 18:29:29 10° NNW 18:43:12 52° NE 19:02:00 10° ESE daylight
02 Mar - 20:41:59 10° WNW 20:59:44 84° SSW 21:19:35 10° ESE daylight
02 Mar - 22:59:05 10° W 23:18:59 62° S 23:35:21 10° ESE visible
03 Mar - 01:18:33 10° WSW 01:37:46 67° SSE 01:49:50 10° E visible
03 Mar - 03:37:39 10° WSW 03:53:09 68° NW 04:01:43 10° NE visible
03 Mar - 05:59:02 10° W 06:04:22 15° NW 06:08:31 10° NNW night (unlit)
03 Mar - 17:16:55 10° N 17:27:44 32° NE 17:42:54 10° E daylight
03 Mar - 19:26:53 10° NW 19:42:20 78° NNE 20:02:37 10° ESE daylight
03 Mar - 21:41:46 10° W 22:00:38 68° SSW 22:19:19 10° ESE visible
